AirNav   BOSE ProFlight Aviation Headset
 
 1029 users online  

L00 Rosamond Skypark Airport
Rosamond, California, USA

GOING TO ROSAMOND?


FAA INFORMATION EFFECTIVE 19 JULY 2018

Location

FAA Identifier: L00
Lat/Long: 34-52-13.8000N / 118-12-19.5000W
34-52.230000N / 118-12.325000W
34.8705000 / -118.2054167
(estimated)
Elevation: 2415 ft. / 736 m (estimated)
Variation: 14E (1985)
From city: 3 miles W of ROSAMOND, CA
Time zone: UTC -7 (UTC -8 during Standard Time)
Zip code: 93560

Airport Operations

Airport use: Open to the public
Activation date: 03/1953
Control tower: no
ARTCC: LOS ANGELES CENTER
FSS: RIVERSIDE FLIGHT SERVICE STATION
NOTAMs facility: RAL (NOTAM-D service available)
Attendance: UNATNDD
Pattern altitude: 3215 ft. MSL
GLIDER TFC PATTERN ALT 500'.
Wind indicator: lighted
Segmented circle: yes
Lights: ACTVT LIRL RWY 08/26 - CTAF.
Beacon: white-green (lighted land airport)
ROTG BCN OTS INDEFLY. ACTVT ROTG BCN - CTAF.

Airport Communications

CTAF: 122.9
WX ASOS at WJF (8 nm S): PHONE 661-949-2840
WX AWOS-3 at MHV (12 nm N): 132.225 (661-824-5218)
WX ASOS at PMD (16 nm S): PHONE 661-272-3798
WX AWOS-1 at L71 (19 nm NE): 120.875 (760-373-7670)
WX AWOS-3P at TSP (20 nm NW): 120.025 (661-823-0473)

Nearby radio navigation aids

VOR radial/distance  VOR name  Freq  Var
PMDr319/16.0PALMDALE VORTAC114.5015E
LHSr043/21.5LAKE HUGHES VORTAC108.4015E
EDWr239/24.2EDWARDS VORTAC116.4015E
GMNr067/32.5GORMAN VORTAC116.1016E

Airport Services

Fuel available: 100LL
Parking: tiedowns
Bottled oxygen: NONE

Runway Information

Runway 8/26

Dimensions: 3600 x 50 ft. / 1097 x 15 m
Surface: asphalt, in fair condition
Runway edge lights: non-standard
RY 08/26 NSTD LIRL 25 FT FM EDGE OF RY.
RUNWAY 8  RUNWAY 26
Latitude: 34-52.230333N34-52.228167N
Longitude: 118-12.685167W118-11.965000W
Gradient: 0.9%0.9%
Traffic pattern: rightleft
Displaced threshold: 300 ft.200 ft.
Markings: basic, in fair conditionbasic, in fair condition
Runway end identifier lights: nono
Obstructions: none
APCH RATIO 50:1 TO DSPLCD THLD.
40 ft. trees, 625 ft. from runway, 10:1 slope to clear
APCH RATIO 20:1 TO DSPLCD THLD.

Airport Ownership and Management from official FAA records

Ownership: Privately-owned
Owner: ROSAMOND SKYPARK ASSN
4000 KNOX AVENUE
ROSAMOND, CA 93560
Phone 888-397-6290
Manager: FRANCIS ZELLER
ROSAMOND SKYPARK ASSOCIATION, 4000 KNOX AVENUE
ROSAMOND, CA 93560
Phone (661) 609-3668
MGR: PRESIDENT, BOARD OF DIRECTORS DIRECTOR: JOHN WILSON, ROSAMOND SKYPARK ASSN (661) 256-4600 EMAIL: JOHN@SKYPARK.ORG

Airport Operational Statistics

Aircraft based on the field: 71
Single engine airplanes: 63
Multi engine airplanes: 3
Helicopters: 1
Gliders airplanes: 2
Ultralights: 2
    
Aircraft operations: avg 29/day *
81% local general aviation
19% transient general aviation
* for 12-month period ending 17 May 2018

Additional Remarks

MAINTAIN RY HEADING UNTIL REACHING ARPT BOUNDARY.
AVOID OVERFLIGHT OF SCHOOLS 1 MILE E AND 2 MILES W.
GLIDERS; ULTRALIGHTS & HELICOPTERS TFC PAT NORTH OF RY.
NO TOUCH & GO LNDGS BETWEEN 2200 & 0700 LOCAL.
POWERED ACFT ONLY MAY USE SOUTH TFC PAT.
CALM WIND USE RY 26.
TERRAIN APPROX 3,200 FEET MSL 2 MILES NORTH-EAST AND 3 MILES NORTHWEST OF ARPT.
ARPT USE RESTRICTED BY AMGR TO ACFT HAVING A MAXIMUM CERTIFICATED GROSS TKOF WGT OF 12,500 LBS OR LESS; CTC AMGR FOR ADDITIONAL INFO (888) 397-6290.

Instrument Procedures

There are no published instrument procedures at L00.

Some nearby airports with instrument procedures:

KWJF - General Wm J Fox Airfield (8 nm S)
KMHV - Mojave Air and Space Port (12 nm N)
KPMD - Palmdale USAF Plant 42 Airport (16 nm S)
KEDW - Edwards Air Force Base (16 nm E)
L71 - California City Municipal Airport (19 nm NE)
 
Loc | Ops | Rwys | IFR | FBO | Links
Com | Nav | Svcs | Stats | Notes


 
Area around L00 (Rosamond Skypark Airport)
 
Road maps at: MapQuest Bing Google
 
Aerial photo
WARNING: Photo may not be current or correct
Aerial photo of L00 (Rosamond Skypark Airport)
Photo by Jerry Rootlieb
Photo taken 25-Nov-2017
looking west.

Do you have a better or more recent aerial photo of Rosamond Skypark Airport that you would like to share? If so, please send us your photo.

 
Sectional chart

 
Airport distance calculator
Flying to Rosamond Skypark Airport? Find the distance to fly.

From to L00

Sunrise and sunset
Times for 19-Jul-2018
 Local
(UTC-7)
 Zulu
(UTC)
Morning civil twilight05:2612:26
Sunrise05:5412:54
Sunset20:0403:04
Evening civil twilight20:3303:33

Current date and time
Zulu (UTC)  20-Jul-2018 01:49:16
Local (UTC-7)  19-Jul-2018 18:49:16
 
METAR
KWJF 
9nm S 
200056Z 22019G30KT 10SM CLR 33/16 A2989 RMK AO2 PK WND 23031/0036 SLP098 T03330161
KMHV 
12nm N 
200120Z AUTO 27014G28KT 220V310 10SM CLR 36/15 A2990 RMK A01
KPMD 
15nm SE 
200053Z 24021KT 10SM CLR 34/16 A2991 RMK AO2 PK WND 25029/0002 SLP092 T03390161
KEDW 
17nm E 
200058Z 23019G24KT 50SM SCT080 SCT140 SCT300 36/14 A2986 RMK AO2A PK WND 23028/17 SLP082 T03580138
K9L2 
18nm NE 
200058Z AUTO 22015G21KT 10SM CLR 37/15 A2986 RMK AO2 SLP081 T03680145
KTSP 
20nm NW 
200135Z AUTO 30010G17KT 10SM CLR 32/09 A3004 RMK AO2
TAF
KWJF 
9nm S 
191735Z 1918/2018 19004KT P6SM SKC FM191900 24012KT P6SM VCTS SCT100CB SCT250 FM192300 23017G25KT P6SM VCTS SCT100CB SCT250 FM200300 22012KT P6SM SCT250 FM201400 26006KT P6SM SKC
KPMD 
15nm SE 
191735Z 1918/2018 00000KT P6SM SKC FM191900 24012KT P6SM VCTS SCT100CB SCT250 FM192300 23017G25KT P6SM VCTS SCT100CB SCT250 FM200300 22012KT P6SM SCT250 FM201400 VRB03KT P6SM SKC
KEDW 
17nm E 
192345Z 1923/2024 23015G25KT 9999 SCT080 SCT150 SCT300 520009 QNH2986INS TEMPO 1923/2003 23025G35KT -TSRA BKN080CB BKN150 BKN300 BECMG 2005/2006 22010G20KT 9999 FEW100 FEW300 510009 QNH2997INS BECMG 2007/2008 23009KT 9999 SCT300 QNH2994INS BECMG 2021/2022 24010G15KT 9999 SCT250 QNH2993INS BECMG 2022/2023 24015G25KT 9999 SCT250 520009 QNH2992INS TX41/1923Z TN24/2012Z
NOTAMs
Click for the latest NOTAMs
NOTAMs are issued by the DoD/FAA and will open in a separate window not controlled by AirNav.

 

 
 

FBO, Fuel Providers, and Aircraft Ground Support

  
 Business Name 
 
 Contact 
 
 Services / Description 
 
Fuel Prices
 
Comments
  
Rosamond Skypark 661-256-4500
no information available

If you are affiliated with Rosamond Skypark and would like to show here your services, contact info, web link, logo, and more, click here
100LL
SS $5.00 
 Updated 13-Jul-2018
 
   2 read write
SS=Self service
Update Fuel Prices
 

Where to Eat: Catering, Restaurants, Food shops

  
 Business Name 
 
 Contact 
 
 Services / Description 
 
Distance
 
Comments
  
El Indio 661-256-6737
no information available

If you are affiliated with El Indio and would like to show here your services, contact info, web link, logo, and more, click here
on airport  
   3 read write
 

Would you like to see your business listed on this page?

 If your business provides an interesting product or service to pilots, flight crews, aircraft, or users of the Rosamond Skypark Airport, you should consider listing it here.  To start the listing process, click on the button below
 
Add a business
 

Other Pages about Rosamond Skypark Airport

www.skypark.org
 
Update a link
 
Copyright © AirNav, LLC. All rights reserved. Privacy Policy  Contact